TimeEDT,TemperatureF,Dew PointF,Humidity,Sea Level PressureIn,VisibilityMPH,Wind Direction,Wind SpeedMPH,Gust SpeedMPH,PrecipitationIn,Events,Conditions,WindDirDegrees,DateUTC
12:53 AM,34.0,21.9,61,30.23,10.0,WNW,9.2,-,N/A,,Overcast,300,2013-03-28 04:53:00
1:53 AM,33.1,21.0,61,30.23,10.0,WNW,11.5,-,N/A,,Scattered Clouds,300,2013-03-28 05:53:00
2:53 AM,32.0,21.0,64,30.23,10.0,WNW,10.4,-,N/A,,Clear,300,2013-03-28 06:53:00
3:53 AM,32.0,21.0,64,30.22,10.0,WNW,8.1,-,N/A,,Mostly Cloudy,290,2013-03-28 07:53:00
4:53 AM,30.9,21.0,67,30.22,10.0,WNW,9.2,-,N/A,,Clear,300,2013-03-28 08:53:00
5:53 AM,30.9,21.9,69,30.23,10.0,WNW,6.9,-,N/A,,Clear,300,2013-03-28 09:53:00
6:53 AM,30.9,21.9,69,30.24,10.0,NW,9.2,-,N/A,,Clear,310,2013-03-28 10:53:00
7:53 AM,30.0,23.0,75,30.25,10.0,WNW,4.6,-,N/A,,Clear,300,2013-03-28 11:53:00
8:53 AM,32.0,24.1,73,30.27,10.0,WNW,5.8,-,N/A,,Clear,300,2013-03-28 12:53:00
9:53 AM,36.0,25.0,64,30.27,10.0,NW,6.9,-,N/A,,Mostly Cloudy,310,2013-03-28 13:53:00
10:53 AM,42.1,24.1,49,30.27,10.0,NW,13.8,-,N/A,,Clear,320,2013-03-28 14:53:00
11:53 AM,45.0,24.1,44,30.27,10.0,NNW,13.8,-,N/A,,Clear,330,2013-03-28 15:53:00
12:53 PM,48.9,25.0,39,30.26,10.0,North,11.5,-,N/A,,Partly Cloudy,350,2013-03-28 16:53:00
1:53 PM,51.1,23.0,33,30.26,10.0,WNW,15.0,19.6,N/A,,Scattered Clouds,290,2013-03-28 17:53:00
2:53 PM,53.1,23.0,31,30.24,10.0,North,13.8,20.7,N/A,,Mostly Cloudy,350,2013-03-28 18:53:00
3:53 PM,51.1,23.0,33,30.24,10.0,NW,9.2,19.6,N/A,,Mostly Cloudy,320,2013-03-28 19:53:00
4:53 PM,52.0,24.1,34,30.23,10.0,WNW,11.5,-,N/A,,Mostly Cloudy,290,2013-03-28 20:53:00
5:53 PM,52.0,24.1,34,30.23,10.0,West,15.0,-,N/A,,Overcast,280,2013-03-28 21:53:00
6:53 PM,48.9,23.0,36,30.24,10.0,NW,9.2,-,N/A,,Overcast,310,2013-03-28 22:53:00
7:53 PM,48.0,23.0,37,30.25,10.0,NW,6.9,-,N/A,,Overcast,310,2013-03-28 23:53:00
8:53 PM,46.0,24.1,42,30.25,10.0,Calm,Calm,-,N/A,,Overcast,0,2013-03-29 00:53:00
9:53 PM,37.0,26.1,65,30.27,10.0,West,5.8,-,N/A,,Overcast,270,2013-03-29 01:53:00
10:53 PM,42.1,24.1,49,30.27,10.0,NW,9.2,-,N/A,,Overcast,310,2013-03-29 02:53:00
11:53 PM,39.0,24.1,55,30.28,10.0,NW,8.1,-,N/A,,Clear,310,2013-03-29 03:53:00